Regional Weather Roundup
Issued by NWS Cleveland, OH

Home | Current Version | Previous Version | Graphics & Text | Print | Product List | Glossary On
Versions: 1 2 3 4 5 6 7 8 9 10 11 12 13 14 15 16 17 18 19 20 21 22 23 24 25 26 27 28 29 30 31 32 33 34 35 36 37 38 39 40 41 42 43 44 45 46 47 48 49 50
000
ASUS41 KCLE 201310
RWRCLE
OHIO REGIONAL WEATHER ROUNDUP
NATIONAL WEATHER SERVICE CLEVELAND, OH
900 AM EDT MON OCT 20 2014

NOTE: "FAIR" INDICATES FEW OR NO CLOUDS BELOW 12,000 FEET WITH NO
SIGNIFICANT WEATHER AND/OR OBSTRUCTIONS TO VISIBILITY.

OHZ001>008-015>018-024>027-034-035-043-044-201400-
   NORTHWEST OHIO

CITY           SKY/WX    TMP DP  RH WIND       PRES   REMARKS
DEFIANCE       CLOUDY    50  44  80 S9        29.88F
FINDLAY        CLOUDY    50  43  77 S10       29.91S
TOLEDO EXPRESS CLOUDY    48  43  82 SW10      29.88F
TOLEDO EXEC    CLOUDY    50  43  77 S10       29.89F
LIMA           CLOUDY    51  43  74 S10       29.92S
$$

OHZ009>014-019>023-028>033-038-089-201400-
   NORTHEAST OHIO

CITY           SKY/WX    TMP DP  RH WIND       PRES   REMARKS
CLE-HOPKINS    CLOUDY    48  39  71 S14       29.96S
CLE-LAKEFRONT  CLOUDY    50  39  66 S13       29.93R
CUY CO. ARPT   PTSUNNY   50  43  76 SW12      29.94S
LORAIN-ELYRIA  PTSUNNY   47  41  80 S12       29.94S
ASHTABULA      CLOUDY    47  39  74 S10       29.94F
AKRON-CANTON   CLOUDY    47  39  74 S10       29.96S
WOOSTER        PTSUNNY   47  39  74 S6        29.96S
MANSFIELD      CLOUDY    47  41  80 S9        29.95S
YOUNGSTOWN     CLOUDY    46  38  73 S9        29.96S
$$

OHZ042-051>053-060>062-070>072-077>081-201400-
  SOUTHWEST OHIO

CITY           SKY/WX    TMP DP  RH WIND       PRES   REMARKS
CINC-COVINGTON CLOUDY    49  43  80 S8        30.01S
CINC-LUNKEN    CLOUDY    48  44  86 CALM      30.02F
HAMILTON       CLOUDY    49  46  90 CALM      30.01S
DAYTON         PTSUNNY   49  43  80 S12       29.97S
WRIGHT-PAT AFB PTSUNNY   48  43  82 S7        29.98S
DAYTON GENERAL CLOUDY    48  44  86 S9        29.99R
WILMINGTON     CLOUDY    47  42  83 S8        30.00S
$$

OHZ036-037-039>041-045>050-054>059-063>069-073>076-082>088-201400-
  CENTRAL AND SOUTHEAST OHIO

CITY           SKY/WX    TMP DP  RH WIND       PRES   REMARKS
COLUMBUS       CLOUDY    47  41  80 S6        29.99S
OSU AIRPORT    CLOUDY    48  42  80 S7        29.98F
BOLTON FIELD   CLOUDY    46  43  87 SW7       30.00S
RICKENBACK AFB CLOUDY    46  41  84 S8        29.99F
NEWARK         CLOUDY    47  41  80 S5        30.00R
MARION         CLOUDY    49  41  74 S9        29.95F
LANCASTER      CLOUDY    48  41  76 S3        30.01S
ZANESVILLE     CLOUDY    45  39  79 SW6       30.02R
NEW PHILLY     NOT AVBL
$$



USA.gov is the U.S. government's official web portal to all federal, state and local government web resources and services.